When you browse on this site, cookies collect data to enhance your experience and personalize the content and advertising you see.
Visit our Privacy Policy to learn more. By continuing to use the site, you agree to this use of cookies and data.
  • In Spain
  • List of Countries
  • For 7 days
  • Water Temperature
  • Satellite Maps
  • Weather Map
  • Weather Widgets
  • user-avatar
    Login

    Hourly Weather Ankona

    Today, 19 June, Wednesday

    Time Temperature Precipitation Wind Pressure Humidity
    00:00 +22°C° 0 mm 1 mps 756 mmHg 81%
    01:00 +22°C° 0 mm 1 mps 756 mmHg 80%
    02:00 +22°C° 0 mm 1 mps 756 mmHg 80%
    03:00 +22°C° 0 mm 1 mps 756 mmHg 79%
    04:00 +21°C° 0 mm 1 mps 756 mmHg 78%
    05:00 +23°C° 0 mm 1 mps 756 mmHg 74%
    06:00 +24°C° 0 mm 1 mps 756 mmHg 70%
    07:00 +26°C° 0 mm 1 mps 756 mmHg 66%
    08:00 +27°C° 0 mm 1 mps 756 mmHg 62%
    09:00 +29°C° 0 mm 1 mps 756 mmHg 57%
    10:00 +31°C° 0 mm 1 mps 756 mmHg 52%
    11:00 +31°C° 0 mm 1 mps 756 mmHg 51%
    12:00 +31°C° 0 mm 2 mps 756 mmHg 51%
    13:00 +32°C° 0 mm 2 mps 756 mmHg 50%
    14:00 +31°C° 0.2 mm 2 mps 756 mmHg 51%
    15:00 +31°C° 0.2 mm 3 mps 755 mmHg 52%
    16:00 +31°C° 0.2 mm 3 mps 755 mmHg 53%
    17:00 +29°C° 0 mm 3 mps 755 mmHg 60%
    18:00 +28°C° 0 mm 3 mps 755 mmHg 68%
    19:00 +27°C° 0 mm 3 mps 755 mmHg 75%
    20:00 +26°C° 0 mm 3 mps 755 mmHg 75%
    21:00 +25°C° 0 mm 3 mps 755 mmHg 76%
    22:00 +24°C° 0 mm 3 mps 755 mmHg 76%
    23:00 +24°C° 0 mm 3 mps 755 mmHg 73%

    Tomorrow, 20 June, Thursday

    Time Temperature Precipitation Wind Pressure Humidity
    00:00 +24°C° 0 mm 3 mps 755 mmHg 69%
    01:00 +22°C° 0 mm 3 mps 755 mmHg 66%
    02:00 +22°C° 0 mm 3 mps 755 mmHg 67%
    03:00 +21°C° 0 mm 3 mps 755 mmHg 68%
    04:00 +20°C° 0 mm 3 mps 755 mmHg 69%
    05:00 +21°C° 0 mm 3 mps 755 mmHg 67%
    06:00 +24°C° 0 mm 2 mps 755 mmHg 65%
    07:00 +25°C° 0 mm 2 mps 756 mmHg 63%
    08:00 +27°C° 0 mm 2 mps 756 mmHg 56%
    09:00 +28°C° 0 mm 2 mps 756 mmHg 50%
    10:00 +30°C° 0 mm 2 mps 756 mmHg 43%
    11:00 +31°C° 0 mm 2 mps 756 mmHg 42%
    12:00 +31°C° 0 mm 2 mps 756 mmHg 42%
    13:00 +32°C° 0 mm 2 mps 756 mmHg 41%
    14:00 +32°C° 0 mm 2 mps 755 mmHg 42%
    15:00 +31°C° 0 mm 2 mps 755 mmHg 43%
    16:00 +31°C° 0 mm 2 mps 755 mmHg 45%
    17:00 +29°C° 0 mm 3 mps 755 mmHg 53%
    18:00 +28°C° 0 mm 3 mps 755 mmHg 61%
    19:00 +26°C° 0 mm 4 mps 755 mmHg 69%
    20:00 +25°C° 0 mm 3 mps 755 mmHg 69%
    21:00 +24°C° 0 mm 3 mps 756 mmHg 69%
    22:00 +24°C° 0 mm 3 mps 756 mmHg 69%
    23:00 +22°C° 0 mm 3 mps 756 mmHg 67%

    Day after tomorrow, 21 June, Friday

    Time Temperature Precipitation Wind Pressure Humidity
    00:00 +21°C° 0 mm 3 mps 756 mmHg 64%
    01:00 +20°C° 0 mm 3 mps 756 mmHg 62%
    02:00 +20°C° 0 mm 3 mps 756 mmHg 62%
    03:00 +20°C° 0 mm 3 mps 756 mmHg 62%
    04:00 +20°C° 0 mm 3 mps 756 mmHg 62%
    05:00 +21°C° 0 mm 2 mps 756 mmHg 61%
    06:00 +23°C° 0 mm 2 mps 757 mmHg 61%
    07:00 +25°C° 0 mm 2 mps 757 mmHg 60%
    08:00 +26°C° 0 mm 2 mps 757 mmHg 54%
    09:00 +28°C° 0 mm 2 mps 757 mmHg 47%
    10:00 +30°C° 0 mm 1 mps 757 mmHg 41%
    11:00 +31°C° 0 mm 2 mps 757 mmHg 41%
    12:00 +31°C° 0 mm 2 mps 757 mmHg 42%
    13:00 +32°C° 0 mm 2 mps 757 mmHg 42%
    14:00 +31°C° 0 mm 3 mps 757 mmHg 46%
    15:00 +30°C° 0 mm 4 mps 756 mmHg 51%
    16:00 +30°C° 0 mm 4 mps 756 mmHg 55%
    17:00 +28°C° 0 mm 4 mps 756 mmHg 62%
    18:00 +27°C° 0 mm 4 mps 756 mmHg 69%
    19:00 +25°C° 0 mm 4 mps 756 mmHg 76%
    20:00 +25°C° 0 mm 4 mps 756 mmHg 78%
    21:00 +23°C° 0 mm 4 mps 756 mmHg 81%
    22:00 +22°C° 0 mm 3 mps 756 mmHg 83%
    23:00 +22°C° 0 mm 3 mps 756 mmHg 81%

    22 June, Saturday

    Time Temperature Precipitation Wind Pressure Humidity
    00:00 +22°C° 0 mm 3 mps 756 mmHg 79%
    01:00 +23°C° 0 mm 2 mps 756 mmHg 77%
    02:00 +23°C° 0 mm 2 mps 756 mmHg 73%
    03:00 +21°C° 0 mm 2 mps 756 mmHg 69%
    04:00 +21°C° 0 mm 2 mps 756 mmHg 66%
    05:00 +23°C° 0 mm 1 mps 756 mmHg 61%
    06:00 +25°C° 0 mm 1 mps 756 mmHg 59%
    07:00 +26°C° 0 mm 1 mps 756 mmHg 58%
    08:00 +27°C° 0 mm 1 mps 756 mmHg 55%
    09:00 +28°C° 0 mm 1 mps 756 mmHg 52%
    10:00 +30°C° 0 mm 1 mps 756 mmHg 49%
    11:00 +30°C° 0 mm 2 mps 756 mmHg 50%
    12:00 +31°C° 0 mm 2 mps 756 mmHg 50%
    13:00 +31°C° 0 mm 2 mps 756 mmHg 50%
    14:00 +31°C° 0 mm 3 mps 755 mmHg 51%
    15:00 +31°C° 0 mm 3 mps 755 mmHg 53%
    16:00 +31°C° 0 mm 3 mps 755 mmHg 54%
    17:00 +30°C° 0 mm 3 mps 755 mmHg 60%
    18:00 +28°C° 0 mm 3 mps 755 mmHg 66%
    19:00 +27°C° 0 mm 3 mps 755 mmHg 72%
    20:00 +26°C° 0 mm 3 mps 755 mmHg 72%
    21:00 +26°C° 0 mm 3 mps 756 mmHg 72%
    22:00 +25°C° 0 mm 3 mps 756 mmHg 71%
    23:00 +25°C° 0 mm 3 mps 756 mmHg 72%

    23 June, Sunday

    Time Temperature Precipitation Wind Pressure Humidity
    00:00 +24°C° 0 mm 2 mps 756 mmHg 72%
    01:00 +24°C° 0 mm 2 mps 756 mmHg 73%
    02:00 +23°C° 0 mm 2 mps 756 mmHg 74%
    03:00 +23°C° 0 mm 2 mps 756 mmHg 76%
    04:00 +21°C° 0 mm 2 mps 756 mmHg 78%
    05:00 +23°C° 0 mm 2 mps 756 mmHg 75%
    06:00 +25°C° 0 mm 3 mps 757 mmHg 72%
    07:00 +26°C° 0 mm 3 mps 757 mmHg 69%
    08:00 +28°C° 0 mm 3 mps 757 mmHg 63%
    09:00 +29°C° 0 mm 3 mps 757 mmHg 57%
    10:00 +31°C° 0 mm 3 mps 758 mmHg 51%
    11:00 +31°C° 0 mm 3 mps 758 mmHg 52%
    12:00 +30°C° 0 mm 3 mps 758 mmHg 53%
    13:00 +30°C° 0 mm 3 mps 758 mmHg 55%
    14:00 +30°C° 0 mm 2 mps 758 mmHg 55%
    15:00 +31°C° 0 mm 2 mps 758 mmHg 55%
    16:00 +31°C° 0 mm 1 mps 757 mmHg 55%
    17:00 +29°C° 0 mm 1 mps 757 mmHg 61%
    18:00 +28°C° 0 mm 1 mps 757 mmHg 67%
    19:00 +27°C° 0 mm 1 mps 757 mmHg 73%
    20:00 +26°C° 0 mm 1 mps 758 mmHg 75%
    21:00 +24°C° 0 mm 1 mps 758 mmHg 77%
    22:00 +23°C° 0 mm 1 mps 759 mmHg 80%
    23:00 +23°C° 0 mm 1 mps 759 mmHg 81%

    24 June, Monday

    Time Temperature Precipitation Wind Pressure Humidity
    00:00 +23°C° 0 mm 1 mps 759 mmHg 83%
    01:00 +21°C° 0 mm 0 mps 759 mmHg 85%
    02:00 +23°C° 0 mm 1 mps 759 mmHg 85%
    03:00 +22°C° 0 mm 1 mps 759 mmHg 85%
    04:00 +22°C° 0 mm 1 mps 759 mmHg 85%
    05:00 +24°C° 0 mm 1 mps 759 mmHg 80%
    06:00 +25°C° 0 mm 1 mps 760 mmHg 75%
    07:00 +26°C° 0 mm 2 mps 760 mmHg 70%
    08:00 +28°C° 0 mm 2 mps 760 mmHg 66%
    09:00 +29°C° 0 mm 3 mps 760 mmHg 61%
    10:00 +30°C° 0 mm 3 mps 760 mmHg 57%
    11:00 +30°C° 0 mm 3 mps 760 mmHg 56%
    12:00 +31°C° 0 mm 3 mps 760 mmHg 54%
    13:00 +31°C° 0 mm 3 mps 760 mmHg 53%
    14:00 +31°C° 0 mm 3 mps 760 mmHg 53%
    15:00 +31°C° 0 mm 3 mps 760 mmHg 52%
    16:00 +31°C° 0 mm 3 mps 760 mmHg 52%
    17:00 +30°C° 0 mm 2 mps 760 mmHg 58%
    18:00 +28°C° 0 mm 2 mps 760 mmHg 64%
    19:00 +27°C° 0 mm 2 mps 760 mmHg 71%
    20:00 +26°C° 0 mm 2 mps 761 mmHg 73%
    21:00 +24°C° 0 mm 2 mps 761 mmHg 75%
    22:00 +23°C° 0 mm 2 mps 761 mmHg 77%
    23:00 +23°C° 0 mm 2 mps 761 mmHg 78%
    Show more